Showing default

LAGEOS 1, 8820

Orbit data source: Space-Track

LAGEOS 1, 8820 is a payload satellite owned by NASA MSFC (US) that was launched on Tue, 04 May 1976 UTC via a DELTA 2913 launch vehicle from the Air Force Western Test Range (AFWTR). Payload-class satellites include a variety of spacecraft equipped with specific instruments for various scientific and technological missions. These include communications satellites like Starlink; space stations such as the ISS; scientific satellites like the Hubble; Earth observation satellites from companies like Planet Labs, Umbra, and HawkEye 360; GPS; miniature CubeSats for education and research; and military/defense satellites.

Loading next visibility...
Identifier
8820, 1976-039A
Orbit
Active
Country
Flag of USUS
Related business
Manufacturer
Bendix
Mission
Operational spacecraft
Bus & Motor
LAGEOS, Unknown motor
Mass
411 kg wet, 411 kg dry
Launch date (UTC)
1976-05-04 (50 years ago)
Launch vehicle
DELTA 2913
Launch site
Air Force Western Test Range (AFWTR)
Object type
Payload
Rocket body
Debris
Shape & HBR
Unknown
Radar Cross Section
Medium (>0.1 m² and <1 m²)

Expand to show TLE details & history
Last TLE update: 20 hours ago

TLE from 20 hours ago
0 LAGEOS 1
1 08820U 76039A   26033.41610676 -.00000006  00000-0  00000-0 0  9995
2 08820 109.8258 133.2001 0044659 331.1344  51.3389  6.38664903904535
Epoch: 2026-02-02T09:59Z
TLE epoch observation values (Epoch: 2026-02-02T09:59:11.624Z)
Latitude
21.45869°
Longitude
-157.33256°
Altitude
5,860.248 km
Speed
5.716 km/s
True Right ascension
08h 20m 18s
True Declination
21° 23' 26"
Sunlit
Object was in full shadow at epoch
Visualization orbit readout
Latitude
Unknown
Longitude
Unknown
Altitude
Unknown
Speed
Unknown
Apparent Right ascension
Unknown
Apparent Declination
Unknown
Sunlit
N/A
Visualization observer readout
Local Sidereal Time
07:57:19
Azimuth
Unknown
Elevation
Unknown
Doppler factor
Unknown
Orbital elements
Apogee altitude
5,946.676 km
Perigee altitude
5,837.083 km
Semi-major axis
12,270.017 km
Eccentricity
0.00447
Inclination
109.8258°
RAAN
133.2001°
Arg. of periapsis
331.1344°
True anomaly
51.7399°
Mean anomaly
51.3389°
Eccentric anomaly
51.53926°
Mean motion
1.59689 °/min
Orbital period
225.44 mins
BSTAR
0
Loading maneuver chart data...
Computing Atmospheric mass density...
Loading historical data...
Loading historical data...
Loading historical data...
Loading historical data...
Loading historical data...
Loading historical data...
Loading historical data...
Other satellites on launch #39 in the year 1976 (1976-05-04 UTC)

Documentation

Showing up to 5 results
|